contact:dominique.lefevre@mio.osupytheas.fr, maurice.libes@osupytheas.fr, didier.mallarino@osupytheas.fr
Project:EMSO http://www.emso-fr.org/EMSO-France
Depth: 2436.0 m
Title:EMSO Ligure Ouest : Data MII capteur AQUADOPP
Date,Latitude,Longitude,X_East,Y_North,Z_Up,Amplitude_X,Amplitude_Y,Amplitude_Z,Batterie,SoundSpeed,Heading,Pitch,Roll,Pressure,TIS,Speed,Direction
, degrees North, degrees East, m.s-1, m.s-1,m.s-1, 1, 1, 1, Volt, m.s-1, degree, degree, degree, dbar, degree_C, m.s-1, degree
2023-01-13T00:04:03,42.805,6.029,0.0,-0.014,-0.038,101.0,101.0,100.0,13.4,1505.2,322.0,-0.8,1.8,2471.24,13.28,0.014,180.0
2023-01-13T00:07:03,42.805,6.029,0.036,0.017,0.026,102.0,98.0,100.0,13.4,1505.2,338.2,-0.7,1.8,2471.221,13.28,0.039,64.7
2023-01-13T00:10:03,42.805,6.029,0.028,-0.005,0.013,99.0,102.0,102.0,13.4,1505.2,316.5,-0.7,1.9,2471.258,13.28,0.028,100.1
2023-01-13T00:13:03,42.805,6.029,0.016,-0.001,-0.015,101.0,100.0,100.0,13.4,1505.2,329.9,-0.8,1.8,2471.237,13.28,0.016,93.6
2023-01-13T00:16:03,42.805,6.029,0.033,-0.013,-0.017,101.0,100.0,101.0,13.4,1505.2,335.8,-0.8,1.8,2471.212,13.28,0.035,111.5
2023-01-13T00:19:03,42.805,6.029,0.026,-0.04,-0.059,101.0,101.0,100.0,13.4,1505.2,325.2,-0.8,1.9,2471.186,13.28,0.047,147.0
2023-01-13T00:22:03,42.805,6.029,0.028,-0.015,0.001,100.0,101.0,100.0,13.3,1505.2,331.6,-0.7,1.8,2471.199,13.29,0.031,118.2
2023-01-13T00:25:03,42.805,6.029,0.024,-0.029,-0.035,99.0,102.0,101.0,13.4,1505.2,320.0,-0.8,1.8,2471.18,13.29,0.037,140.4
2023-01-13T00:28:03,42.805,6.029,0.038,-0.019,-0.023,100.0,101.0,101.0,13.4,1505.2,322.0,-0.8,1.8,2471.156,13.28,0.042,116.6
2023-01-13T00:31:03,42.805,6.029,0.056,-0.027,0.002,100.0,101.0,101.0,13.4,1505.2,330.4,-0.7,1.8,2471.153,13.29,0.062,115.7
2023-01-13T00:34:03,42.805,6.029,0.03,-0.014,0.0,102.0,101.0,100.0,13.4,1505.2,321.4,-0.7,1.8,2471.151,13.29,0.033,115.0
2023-01-13T00:37:03,42.805,6.029,0.014,-0.022,-0.005,101.0,100.0,101.0,13.3,1505.2,327.8,-0.7,1.8,2471.138,13.29,0.026,147.5
2023-01-13T00:40:03,42.805,6.029,0.052,-0.031,-0.006,99.0,102.0,102.0,13.3,1505.2,335.8,-0.7,1.9,2471.176,13.29,0.06,120.8
2023-01-13T00:43:03,42.805,6.029,0.052,-0.021,-0.003,101.0,101.0,101.0,13.4,1505.2,319.9,-0.8,1.8,2471.199,13.29,0.056,112.0
2023-01-13T00:46:03,42.805,6.029,0.043,-0.033,0.02,101.0,101.0,101.0,13.4,1505.2,333.0,-0.8,1.8,2471.198,13.29,0.054,127.5
2023-01-13T00:49:03,42.805,6.029,0.021,-0.033,-0.029,101.0,102.0,99.0,13.4,1505.2,327.9,-0.8,1.8,2471.2,13.29,0.039,147.5
2023-01-13T00:52:03,42.805,6.029,0.007,-0.002,-0.008,101.0,100.0,101.0,13.3,1505.2,326.5,-0.8,1.8,2471.166,13.29,0.007,105.9
2023-01-13T00:55:03,42.805,6.029,0.025,-0.007,-0.018,100.0,100.0,101.0,13.4,1505.2,322.3,-0.8,1.8,2471.13,13.29,0.025,105.6
2023-01-13T00:58:03,42.805,6.029,0.043,-0.026,0.025,102.0,101.0,101.0,13.4,1505.2,338.3,-0.8,1.8,2471.136,13.29,0.05,121.2
2023-01-13T01:04:03,42.805,6.029,0.017,-0.033,-0.025,103.0,102.0,102.0,13.3,1505.2,322.6,-0.7,1.8,2471.176,13.28,0.037,152.7
2023-01-13T01:07:03,42.805,6.029,0.038,-0.044,-0.06,101.0,101.0,101.0,13.4,1505.2,322.2,-0.8,1.8,2471.213,13.28,0.058,139.2
2023-01-13T01:10:03,42.805,6.029,0.035,-0.018,0.001,101.0,101.0,100.0,13.4,1505.2,322.9,-0.8,1.8,2471.18,13.28,0.039,117.2
2023-01-13T01:13:03,42.805,6.029,0.041,-0.033,-0.028,101.0,101.0,101.0,13.4,1505.2,330.5,-0.8,1.8,2471.183,13.28,0.052,128.8
2023-01-13T01:16:03,42.805,6.029,0.037,-0.013,-0.016,101.0,101.0,100.0,13.4,1505.2,315.5,-0.8,1.9,2471.172,13.28,0.039,109.4
2023-01-13T01:19:03,42.805,6.029,0.025,-0.01,0.007,101.0,101.0,101.0,13.4,1505.2,324.4,-0.8,1.8,2471.188,13.28,0.026,111.8
2023-01-13T01:22:03,42.805,6.029,0.056,-0.052,0.003,100.0,101.0,101.0,13.4,1505.2,339.3,-0.7,1.8,2471.143,13.28,0.076,132.9
2023-01-13T01:25:03,42.805,6.029,0.037,-0.049,-0.059,101.0,100.0,100.0,13.4,1505.2,329.9,-0.8,1.8,2471.125,13.28,0.061,142.9
2023-01-13T01:28:03,42.805,6.029,0.012,-0.016,-0.059,101.0,101.0,101.0,13.3,1505.2,328.6,-0.8,1.8,2471.151,13.28,0.02,143.1
2023-01-13T01:31:03,42.805,6.029,0.029,-0.037,-0.018,101.0,100.0,100.0,13.4,1505.2,331.5,-0.7,1.8,2471.139,13.29,0.047,141.9
2023-01-13T01:34:03,42.805,6.029,0.034,-0.043,-0.015,100.0,101.0,101.0,13.4,1505.2,330.4,-0.8,1.8,2471.17,13.29,0.054,141.7
2023-01-13T01:37:03,42.805,6.029,0.043,-0.025,-0.024,102.0,100.0,101.0,13.3,1505.2,322.6,-0.8,1.8,2471.151,13.29,0.049,120.2
2023-01-13T01:40:03,42.805,6.029,0.03,-0.043,-0.034,102.0,100.0,100.0,13.4,1505.2,333.4,-0.7,1.8,2471.143,13.29,0.052,145.1
2023-01-13T01:43:03,42.805,6.029,0.002,-0.022,-0.043,100.0,100.0,102.0,13.4,1505.2,321.5,-0.7,1.8,2471.108,13.29,0.022,174.8
2023-01-13T01:46:03,42.805,6.029,0.026,-0.026,0.0,100.0,100.0,102.0,13.3,1505.2,322.7,-0.8,1.8,2471.143,13.29,0.036,135.0
2023-01-13T01:49:03,42.805,6.029,0.048,-0.014,-0.022,101.0,100.0,101.0,13.4,1505.2,319.8,-0.7,1.8,2471.122,13.29,0.05,106.3
2023-01-13T01:52:03,42.805,6.029,0.034,-0.038,-0.018,102.0,100.0,99.0,13.4,1505.2,331.3,-0.8,1.8,2471.144,13.29,0.05,138.2
2023-01-13T01:55:03,42.805,6.029,0.025,-0.035,-0.018,101.0,99.0,101.0,13.3,1505.2,331.0,-0.8,1.8,2471.12,13.29,0.043,144.5
2023-01-13T01:58:03,42.805,6.029,0.031,-0.024,-0.029,101.0,100.0,101.0,13.4,1505.2,319.4,-0.8,1.8,2471.142,13.29,0.039,127.7
2023-01-13T02:04:03,42.805,6.029,0.019,-0.001,0.001,103.0,100.0,101.0,13.4,1505.2,319.9,-0.7,1.8,2471.176,13.28,0.019,93.0
2023-01-13T02:07:03,42.805,6.029,0.017,-0.018,-0.011,102.0,102.0,99.0,13.3,1505.2,321.3,-0.8,1.8,2471.17,13.28,0.024,136.6
2023-01-13T02:10:03,42.805,6.029,0.04,-0.017,0.002,100.0,101.0,100.0,13.3,1505.2,326.3,-0.8,1.8,2471.168,13.28,0.043,113.0
2023-01-13T02:13:03,42.805,6.029,0.009,-0.01,-0.029,99.0,103.0,101.0,13.3,1505.2,323.4,-0.7,1.8,2471.16,13.28,0.013,138.0
2023-01-13T02:16:03,42.805,6.029,0.012,-0.003,0.004,103.0,99.0,100.0,13.4,1505.2,329.9,-0.8,1.8,2471.137,13.28,0.012,104.0
2023-01-13T02:19:03,42.805,6.029,0.014,-0.025,-0.02,101.0,101.0,101.0,13.3,1505.2,326.7,-0.8,1.8,2471.128,13.28,0.028,150.7
2023-01-13T02:22:03,42.805,6.029,0.023,-0.01,-0.017,101.0,102.0,100.0,13.3,1505.2,324.0,-0.7,1.8,2471.14,13.28,0.025,113.5
2023-01-13T02:25:03,42.805,6.029,0.021,-0.013,-0.004,101.0,100.0,100.0,13.4,1505.2,331.6,-0.7,1.8,2471.161,13.29,0.024,121.8
2023-01-13T02:28:03,42.805,6.029,0.033,-0.033,-0.021,100.0,101.0,101.0,13.3,1505.2,326.7,-0.8,1.8,2471.122,13.29,0.046,135.0
2023-01-13T02:31:03,42.805,6.029,0.008,-0.024,-0.025,102.0,100.0,100.0,13.3,1505.2,321.4,-0.8,1.8,2471.105,13.29,0.025,161.6
2023-01-13T02:34:03,42.805,6.029,0.021,-0.016,-0.026,103.0,99.0,100.0,13.4,1505.2,326.0,-0.8,1.8,2471.151,13.29,0.026,127.3
2023-01-13T02:37:03,42.805,6.029,0.001,-0.025,-0.032,101.0,100.0,101.0,13.4,1505.2,337.3,-0.8,1.8,2471.12,13.29,0.025,177.7
2023-01-13T02:40:03,42.805,6.029,0.015,-0.014,-0.007,99.0,103.0,100.0,13.4,1505.2,330.6,-0.8,1.8,2471.16,13.29,0.02,133.0
2023-01-13T02:43:03,42.805,6.029,0.015,-0.057,-0.089,103.0,100.0,100.0,13.4,1505.2,320.3,-0.8,1.8,2471.105,13.29,0.058,165.3
2023-01-13T02:46:03,42.805,6.029,0.029,-0.015,-0.007,100.0,101.0,102.0,13.3,1505.2,334.2,-0.8,1.8,2471.13,13.29,0.032,117.4
2023-01-13T02:49:03,42.805,6.029,0.029,-0.019,-0.015,102.0,98.0,100.0,13.4,1505.2,335.7,-0.7,1.8,2471.105,13.29,0.034,123.2
2023-01-13T02:52:03,42.805,6.029,0.028,-0.022,-0.034,100.0,101.0,101.0,13.4,1505.2,335.4,-0.8,1.8,2471.117,13.29,0.035,128.2
2023-01-13T02:55:03,42.805,6.029,0.029,-0.015,-0.004,101.0,100.0,102.0,13.4,1505.2,331.3,-0.8,1.8,2471.118,13.29,0.032,117.4
2023-01-13T02:58:03,42.805,6.029,0.014,-0.014,-0.012,101.0,101.0,100.0,13.4,1505.2,326.1,-0.7,1.8,2471.087,13.29,0.019,135.0
2023-01-13T03:04:03,42.805,6.029,0.038,-0.012,-0.011,100.0,102.0,102.0,13.4,1505.2,327.3,-0.8,1.8,2471.192,13.28,0.039,107.5
2023-01-13T03:07:03,42.805,6.029,0.038,-0.01,0.001,101.0,102.0,100.0,13.3,1505.2,321.9,-0.8,1.9,2471.154,13.28,0.039,104.7
2023-01-13T03:10:03,42.805,6.029,0.042,-0.029,-0.023,101.0,100.0,101.0,13.3,1505.2,322.0,-0.8,1.8,2471.12,13.28,0.051,124.6
2023-01-13T03:13:03,42.805,6.029,0.035,-0.02,0.008,100.0,101.0,101.0,13.4,1505.2,327.7,-0.8,1.8,2471.152,13.28,0.04,119.7
2023-01-13T03:16:03,42.805,6.029,0.025,-0.012,-0.007,103.0,99.0,100.0,13.3,1505.2,318.4,-0.7,1.8,2471.124,13.28,0.027,115.6
2023-01-13T03:19:03,42.805,6.029,0.034,-0.032,-0.032,100.0,101.0,101.0,13.4,1505.2,333.8,-0.8,1.8,2471.122,13.29,0.046,133.3
2023-01-13T03:22:03,42.805,6.029,0.023,-0.039,-0.016,101.0,101.0,101.0,13.4,1505.2,331.0,-0.8,1.8,2471.154,13.29,0.045,149.5
2023-01-13T03:25:03,42.805,6.029,-0.001,-0.017,-0.022,101.0,101.0,101.0,13.3,1505.2,323.1,-0.8,1.8,2471.118,13.29,0.017,183.4
2023-01-13T03:28:03,42.805,6.029,-0.005,-0.021,-0.052,105.0,101.0,101.0,13.3,1505.2,323.2,-0.7,1.8,2471.135,13.29,0.021,193.4
2023-01-13T03:31:03,42.805,6.029,0.006,-0.013,-0.024,103.0,100.0,100.0,13.3,1505.2,334.2,-0.7,1.8,2471.122,13.29,0.014,155.2
2023-01-13T03:34:03,42.805,6.029,0.034,-0.023,-0.024,100.0,101.0,101.0,13.4,1505.2,324.6,-0.8,1.8,2471.094,13.29,0.041,124.1
2023-01-13T03:37:03,42.805,6.029,0.026,-0.011,-0.018,100.0,100.0,101.0,13.4,1505.2,323.1,-0.7,1.8,2471.084,13.29,0.028,112.9
2023-01-13T03:40:03,42.805,6.029,0.026,-0.022,-0.033,102.0,101.0,100.0,13.4,1505.2,332.6,-0.8,1.8,2471.122,13.29,0.034,130.2
2023-01-13T03:43:03,42.805,6.029,0.042,-0.025,-0.008,100.0,100.0,101.0,13.3,1505.2,325.3,-0.8,1.8,2471.108,13.29,0.048,120.8
2023-01-13T03:46:03,42.805,6.029,0.014,-0.012,-0.018,101.0,101.0,101.0,13.4,1505.2,337.1,-0.7,1.8,2471.091,13.29,0.018,130.6
2023-01-13T03:49:03,42.805,6.029,0.013,-0.008,-0.026,101.0,100.0,101.0,13.3,1505.2,318.6,-0.8,1.8,2471.12,13.29,0.015,121.6
2023-01-13T03:52:03,42.805,6.029,0.044,-0.032,-0.01,102.0,101.0,100.0,13.4,1505.2,331.1,-0.8,1.8,2471.116,13.29,0.054,126.0
2023-01-13T03:55:03,42.805,6.029,0.037,-0.025,0.005,102.0,100.0,101.0,13.4,1505.2,333.4,-0.8,1.8,2471.049,13.29,0.044,124.0
2023-01-13T03:58:03,42.805,6.029,0.019,-0.006,-0.019,101.0,101.0,101.0,13.4,1505.2,321.4,-0.8,1.8,2471.119,13.29,0.019,107.5
2023-01-13T04:04:03,42.805,6.029,0.018,-0.018,-0.006,101.0,101.0,100.0,13.4,1505.2,319.7,-0.8,1.8,2471.14,13.28,0.025,135.0
2023-01-13T04:07:03,42.805,6.029,0.019,-0.023,-0.016,101.0,99.0,100.0,13.4,1505.2,328.0,-0.8,1.8,2471.153,13.28,0.029,140.4
2023-01-13T04:10:03,42.805,6.029,0.006,-0.003,-0.02,102.0,100.0,101.0,13.4,1505.2,319.4,-0.8,1.8,2471.134,13.28,0.006,116.6
2023-01-13T04:13:03,42.805,6.029,0.01,-0.021,-0.028,99.0,101.0,102.0,13.4,1505.2,324.6,-0.7,1.8,2471.158,13.28,0.023,154.5
2023-01-13T04:16:03,42.805,6.029,0.044,-0.016,0.015,101.0,101.0,100.0,13.4,1505.2,327.0,-0.8,1.9,2471.112,13.28,0.046,110.0
2023-01-13T04:19:03,42.805,6.029,0.02,-0.027,-0.046,100.0,101.0,101.0,13.3,1505.2,322.4,-0.8,1.8,2471.094,13.28,0.033,143.5
2023-01-13T04:22:03,42.805,6.029,0.047,-0.011,-0.008,102.0,100.0,101.0,13.4,1505.2,317.6,-0.8,1.8,2471.098,13.29,0.048,103.2
2023-01-13T04:25:03,42.805,6.029,0.017,-0.035,-0.065,100.0,101.0,101.0,13.4,1505.2,331.4,-0.7,1.8,2471.101,13.29,0.038,154.1
2023-01-13T04:28:03,42.805,6.029,0.051,-0.049,-0.033,101.0,101.0,100.0,13.4,1505.2,324.9,-0.8,1.8,2471.11,13.29,0.07,133.9
2023-01-13T04:31:03,42.805,6.029,0.024,-0.019,-0.02,101.0,101.0,100.0,13.4,1505.2,320.4,-0.7,1.8,2471.131,13.29,0.03,128.4
2023-01-13T04:34:03,42.805,6.029,0.027,-0.02,-0.036,101.0,100.0,101.0,13.4,1505.2,324.1,-0.8,1.8,2471.078,13.29,0.033,126.5
2023-01-13T04:37:03,42.805,6.029,0.024,-0.036,0.0,101.0,101.0,101.0,13.3,1505.2,330.2,-0.8,1.8,2471.132,13.29,0.043,146.3
2023-01-13T04:40:03,42.805,6.029,0.018,-0.015,-0.01,101.0,101.0,101.0,13.4,1505.2,320.1,-0.7,1.8,2471.081,13.29,0.023,129.8
2023-01-13T04:43:03,42.805,6.029,0.007,-0.027,-0.039,101.0,100.0,101.0,13.4,1505.2,326.5,-0.7,1.8,2471.131,13.29,0.027,165.5
2023-01-13T04:46:03,42.805,6.029,0.032,-0.011,-0.021,101.0,100.0,101.0,13.3,1505.2,327.3,-0.7,1.8,2471.11,13.29,0.033,109.0
2023-01-13T04:49:03,42.805,6.029,0.041,-0.018,-0.004,100.0,100.0,102.0,13.3,1505.2,323.7,-0.8,1.8,2471.119,13.29,0.044,113.7
2023-01-13T04:52:03,42.805,6.029,0.032,-0.033,-0.031,100.0,102.0,101.0,13.4,1505.2,322.1,-0.8,1.8,2471.105,13.29,0.045,135.9
2023-01-13T04:55:03,42.805,6.029,0.01,-0.005,-0.002,101.0,101.0,101.0,13.4,1505.2,321.0,-0.8,1.8,2471.099,13.29,0.011,116.6
2023-01-13T04:58:03,42.805,6.029,0.036,-0.011,0.013,100.0,101.0,101.0,13.4,1505.2,330.5,-0.8,1.8,2471.109,13.29,0.037,107.0
2023-01-13T05:04:03,42.805,6.029,0.008,-0.039,-0.059,100.0,100.0,101.0,13.3,1505.2,332.4,-0.8,1.8,2471.111,13.28,0.039,168.4
2023-01-13T05:07:03,42.805,6.029,0.032,-0.033,-0.059,101.0,101.0,101.0,13.4,1505.2,320.0,-0.8,1.8,2471.149,13.28,0.045,135.9
2023-01-13T05:10:03,42.805,6.029,0.024,-0.039,-0.035,101.0,101.0,100.0,13.4,1505.2,330.2,-0.8,1.8,2471.161,13.28,0.045,148.4
2023-01-13T05:13:03,42.805,6.029,0.003,-0.013,-0.037,101.0,101.0,101.0,13.4,1505.2,331.3,-0.8,1.8,2471.13,13.28,0.013,167.0
2023-01-13T05:16:03,42.805,6.029,0.008,-0.007,-0.009,101.0,101.0,101.0,13.3,1505.2,327.9,-0.7,1.8,2471.1,13.28,0.01,131.2
2023-01-13T05:19:03,42.805,6.029,0.038,-0.011,-0.005,101.0,102.0,100.0,13.3,1505.2,321.5,-0.7,1.8,2471.13,13.29,0.039,106.1
2023-01-13T05:22:03,42.805,6.029,0.011,-0.022,-0.029,101.0,101.0,101.0,13.4,1505.2,329.3,-0.7,1.8,2471.134,13.29,0.024,153.4
2023-01-13T05:25:03,42.805,6.029,0.004,-0.033,-0.054,101.0,100.0,100.0,13.4,1505.2,330.6,-0.7,1.8,2471.122,13.29,0.033,173.1
2023-01-13T05:28:03,42.805,6.029,0.025,-0.015,-0.004,103.0,101.0,100.0,13.4,1505.2,321.8,-0.7,1.8,2471.124,13.29,0.029,121.0
2023-01-13T05:31:03,42.805,6.029,-0.01,-0.031,-0.068,101.0,101.0,101.0,13.3,1505.2,325.8,-0.7,1.8,2471.107,13.29,0.032,197.9
2023-01-13T05:34:03,42.805,6.029,0.053,-0.019,0.011,102.0,101.0,101.0,13.4,1505.2,315.5,-0.8,1.8,2471.137,13.29,0.056,109.7
2023-01-13T05:37:03,42.805,6.029,0.05,-0.034,-0.001,101.0,101.0,101.0,13.4,1505.2,324.3,-0.8,1.8,2471.126,13.29,0.06,124.2
2023-01-13T05:40:03,42.805,6.029,0.039,-0.047,-0.02,101.0,100.0,101.0,13.4,1505.2,328.5,-0.8,1.8,2471.153,13.29,0.061,140.3
2023-01-13T05:43:03,42.805,6.029,0.04,-0.026,-0.027,100.0,101.0,101.0,13.3,1505.2,321.6,-0.8,1.8,2471.131,13.29,0.047,123.0
2023-01-13T05:46:03,42.805,6.029,0.026,-0.019,-0.018,101.0,101.0,101.0,13.4,1505.2,330.4,-0.7,1.8,2471.13,13.29,0.032,126.2
2023-01-13T05:49:03,42.805,6.029,0.049,-0.032,-0.042,100.0,101.0,101.0,13.4,1505.2,322.5,-0.8,1.8,2471.144,13.29,0.058,123.2
2023-01-13T05:52:03,42.805,6.029,0.035,-0.003,-0.002,101.0,101.0,100.0,13.4,1505.2,316.0,-0.7,1.8,2471.119,13.29,0.035,94.9
2023-01-13T05:55:03,42.805,6.029,0.016,-0.018,-0.026,101.0,101.0,101.0,13.4,1505.2,328.8,-0.7,1.8,2471.129,13.29,0.024,138.4
2023-01-13T05:58:03,42.805,6.029,0.009,-0.008,-0.015,101.0,101.0,101.0,13.3,1505.2,324.3,-0.8,1.8,2471.108,13.29,0.012,131.6
2023-01-13T06:04:03,42.805,6.029,0.019,0.0,0.003,100.0,101.0,101.0,13.4,1505.2,318.9,-0.8,1.8,2471.193,13.28,0.019,90.0
2023-01-13T06:07:03,42.805,6.029,0.04,-0.025,-0.003,101.0,100.0,102.0,13.4,1505.2,320.9,-0.8,1.8,2471.174,13.28,0.047,122.0
2023-01-13T06:10:03,42.805,6.029,0.039,-0.022,-0.015,100.0,102.0,102.0,13.3,1505.2,324.8,-0.8,1.8,2471.175,13.28,0.044,119.4
2023-01-13T06:13:03,42.805,6.029,0.029,-0.021,-0.011,101.0,101.0,100.0,13.4,1505.2,324.6,-0.8,1.8,2471.16,13.28,0.035,125.9
2023-01-13T06:16:03,42.805,6.029,-0.011,-0.015,-0.047,100.0,101.0,101.0,13.4,1505.2,320.9,-0.8,1.8,2471.193,13.28,0.018,216.3
2023-01-13T06:19:03,42.805,6.029,0.028,-0.02,0.006,101.0,101.0,101.0,13.4,1505.2,321.8,-0.8,1.8,2471.143,13.29,0.034,125.5
2023-01-13T06:22:03,42.805,6.029,0.027,-0.027,-0.014,101.0,100.0,100.0,13.4,1505.2,320.9,-0.8,1.8,2471.155,13.29,0.038,135.0
2023-01-13T06:25:03,42.805,6.029,0.025,-0.017,-0.002,101.0,101.0,101.0,13.4,1505.2,319.6,-0.8,1.8,2471.122,13.29,0.03,124.2
2023-01-13T06:28:03,42.805,6.029,0.027,-0.018,-0.008,101.0,100.0,101.0,13.4,1505.2,326.9,-0.8,1.8,2471.161,13.29,0.032,123.7
2023-01-13T06:31:03,42.805,6.029,0.002,-0.021,-0.032,101.0,100.0,100.0,13.4,1505.2,322.6,-0.7,1.8,2471.157,13.29,0.021,174.6
2023-01-13T06:34:03,42.805,6.029,0.034,-0.032,-0.021,100.0,101.0,101.0,13.4,1505.2,331.3,-0.8,1.8,2471.132,13.29,0.046,133.3
2023-01-13T06:37:03,42.805,6.029,0.035,-0.002,0.001,100.0,100.0,101.0,13.4,1505.2,325.7,-0.8,1.8,2471.144,13.29,0.035,93.3
2023-01-13T06:40:03,42.805,6.029,0.024,-0.006,0.015,101.0,100.0,101.0,13.4,1505.2,329.6,-0.8,1.8,2471.106,13.29,0.024,104.0
2023-01-13T06:43:03,42.805,6.029,0.056,-0.038,-0.044,101.0,100.0,100.0,13.4,1505.2,322.6,-0.7,1.8,2471.15,13.29,0.067,124.2
2023-01-13T06:46:03,42.805,6.029,0.039,-0.012,0.026,100.0,100.0,101.0,13.4,1505.2,336.6,-0.7,1.8,2471.164,13.29,0.04,107.1
2023-01-13T06:49:03,42.805,6.029,0.037,-0.012,-0.006,101.0,101.0,100.0,13.3,1505.2,318.9,-0.8,1.8,2471.146,13.29,0.038,108.0
2023-01-13T06:52:03,42.805,6.029,0.013,-0.023,-0.033,101.0,100.0,101.0,13.4,1505.2,321.1,-0.7,1.8,2471.171,13.29,0.026,150.5
2023-01-13T06:55:03,42.805,6.029,0.043,-0.042,-0.007,100.0,101.0,100.0,13.3,1505.2,334.5,-0.8,1.8,2471.196,13.29,0.06,134.3
2023-01-13T06:58:03,42.805,6.029,0.017,-0.029,-0.009,101.0,101.0,100.0,13.4,1505.2,338.0,-0.8,1.8,2471.147,13.29,0.033,149.6
2023-01-13T07:04:03,42.805,6.029,0.042,-0.02,-0.006,102.0,100.0,101.0,13.3,1505.2,323.6,-0.8,1.8,2471.18,13.28,0.046,115.5
2023-01-13T07:07:03,42.805,6.029,0.019,-0.009,0.002,101.0,100.0,101.0,13.4,1505.2,318.3,-0.7,1.8,2471.199,13.28,0.021,115.3
2023-01-13T07:10:03,42.805,6.029,-0.007,-0.021,-0.042,100.0,101.0,101.0,13.4,1505.2,316.6,-0.7,1.8,2471.218,13.28,0.022,198.4
2023-01-13T07:13:03,42.805,6.029,0.039,-0.023,-0.035,100.0,101.0,100.0,13.4,1505.2,320.0,-0.8,1.8,2471.221,13.28,0.045,120.5
2023-01-13T07:16:03,42.805,6.029,0.054,-0.017,0.009,101.0,102.0,101.0,13.4,1505.2,324.6,-0.8,1.8,2471.166,13.28,0.056,107.5
2023-01-13T07:19:03,42.805,6.029,0.036,-0.027,-0.032,101.0,101.0,100.0,13.4,1505.2,333.8,-0.8,1.8,2471.194,13.28,0.045,126.9
2023-01-13T07:22:03,42.805,6.029,0.042,-0.026,-0.032,100.0,101.0,101.0,13.4,1505.2,331.9,-0.8,1.8,2471.183,13.29,0.049,121.8
2023-01-13T07:25:03,42.805,6.029,0.015,-0.007,-0.007,102.0,100.0,101.0,13.4,1505.2,321.9,-0.8,1.9,2471.2,13.29,0.016,115.0
2023-01-13T07:28:03,42.805,6.029,0.037,-0.043,-0.038,102.0,102.0,101.0,13.4,1505.2,333.0,-0.8,1.8,2471.153,13.29,0.056,139.3
2023-01-13T07:31:03,42.805,6.029,0.027,-0.035,-0.008,100.0,102.0,100.0,13.3,1505.2,316.0,-0.7,1.8,2471.229,13.29,0.044,142.3
2023-01-13T07:34:03,42.805,6.029,0.03,-0.017,0.003,100.0,101.0,101.0,13.4,1505.2,335.4,-0.7,1.9,2471.203,13.29,0.034,119.5
2023-01-13T07:37:03,42.805,6.029,0.025,-0.037,-0.037,101.0,102.0,100.0,13.3,1505.2,320.0,-0.8,1.8,2471.201,13.29,0.044,146.0
2023-01-13T07:40:03,42.805,6.029,0.012,-0.01,-0.033,100.0,101.0,101.0,13.4,1505.2,332.5,-0.7,1.8,2471.215,13.29,0.015,129.8
2023-01-13T07:43:03,42.805,6.029,0.032,-0.015,-0.013,102.0,101.0,101.0,13.4,1505.2,321.0,-0.8,1.8,2471.19,13.29,0.035,115.1
2023-01-13T07:46:03,42.805,6.029,0.007,-0.025,-0.032,100.0,101.0,102.0,13.4,1505.2,325.3,-0.8,1.8,2471.154,13.29,0.025,164.4
2023-01-13T07:49:03,42.805,6.029,0.035,-0.055,-0.045,101.0,101.0,101.0,13.4,1505.2,328.5,-0.8,1.8,2471.219,13.29,0.065,147.5
2023-01-13T07:52:03,42.805,6.029,0.049,-0.012,-0.006,100.0,102.0,101.0,13.4,1505.2,319.0,-0.7,1.8,2471.193,13.29,0.05,103.8
2023-01-13T07:55:03,42.805,6.029,0.021,-0.023,-0.008,102.0,102.0,100.0,13.4,1505.2,322.6,-0.7,1.8,2471.226,13.29,0.031,137.6
2023-01-13T07:58:03,42.805,6.029,0.029,-0.016,0.003,101.0,101.0,101.0,13.3,1505.2,321.7,-0.8,1.8,2471.21,13.29,0.033,118.9
2023-01-13T08:04:03,42.805,6.029,0.031,-0.039,-0.046,102.0,101.0,101.0,13.4,1505.2,317.6,-0.7,1.8,2471.255,13.28,0.049,141.5
2023-01-13T08:07:03,42.805,6.029,0.041,-0.018,-0.01,102.0,101.0,100.0,13.4,1505.2,327.7,-0.7,1.8,2471.245,13.28,0.044,113.7
2023-01-13T08:10:03,42.805,6.029,0.024,-0.02,-0.014,100.0,101.0,101.0,13.4,1505.2,320.5,-0.8,1.8,2471.229,13.28,0.031,129.8
2023-01-13T08:13:03,42.805,6.029,0.016,-0.038,-0.029,102.0,101.0,101.0,13.3,1505.2,321.8,-0.8,1.8,2471.193,13.28,0.041,157.2
2023-01-13T08:16:03,42.805,6.029,0.048,-0.029,-0.001,101.0,101.0,101.0,13.4,1505.2,323.2,-0.8,1.8,2471.249,13.28,0.056,121.1
2023-01-13T08:19:03,42.805,6.029,0.003,-0.023,-0.029,101.0,100.0,101.0,13.4,1505.2,334.6,-0.8,1.8,2471.23,13.28,0.023,172.6
2023-01-13T08:22:03,42.805,6.029,0.035,-0.023,-0.038,100.0,100.0,102.0,13.3,1505.2,317.0,-0.8,1.8,2471.22,13.29,0.041,123.3
2023-01-13T08:25:03,42.805,6.029,-0.003,0.0,-0.015,101.0,102.0,101.0,13.4,1505.2,335.9,-0.7,1.8,2471.258,13.29,0.003,270.0
2023-01-13T08:28:03,42.805,6.029,0.018,-0.02,-0.005,101.0,101.0,101.0,13.3,1505.2,337.3,-0.8,1.8,2471.24,13.29,0.026,138.0
2023-01-13T08:31:03,42.805,6.029,0.02,-0.023,-0.027,101.0,100.0,101.0,13.3,1505.2,327.5,-0.8,1.8,2471.229,13.29,0.03,139.0
2023-01-13T08:34:03,42.805,6.029,0.018,-0.022,-0.022,101.0,100.0,101.0,13.4,1505.2,323.7,-0.8,1.8,2471.232,13.29,0.028,140.7
2023-01-13T08:37:03,42.805,6.029,0.034,-0.022,-0.015,102.0,100.0,101.0,13.4,1505.2,316.0,-0.8,1.8,2471.226,13.29,0.04,122.9
2023-01-13T08:40:03,42.805,6.029,0.01,-0.027,-0.025,100.0,100.0,102.0,13.4,1505.2,331.6,-0.8,1.8,2471.215,13.29,0.028,159.7
2023-01-13T08:43:03,42.805,6.029,0.033,-0.029,-0.029,99.0,101.0,101.0,13.4,1505.2,329.9,-0.7,1.8,2471.246,13.29,0.043,131.3
2023-01-13T08:46:03,42.805,6.029,0.028,-0.039,-0.035,100.0,102.0,100.0,13.4,1505.2,337.7,-0.8,1.8,2471.269,13.29,0.048,144.3
2023-01-13T08:49:03,42.805,6.029,0.015,-0.041,-0.051,100.0,100.0,101.0,13.4,1505.2,337.7,-0.7,1.8,2471.216,13.29,0.043,159.9
2023-01-13T08:52:03,42.805,6.029,0.007,-0.02,-0.004,101.0,100.0,100.0,13.4,1505.2,325.5,-0.8,1.8,2471.258,13.29,0.021,160.7
2023-01-13T08:55:03,42.805,6.029,0.029,-0.014,-0.011,99.0,100.0,101.0,13.3,1505.2,323.1,-0.8,1.8,2471.252,13.29,0.032,115.8
2023-01-13T08:58:03,42.805,6.029,0.019,0.003,0.011,100.0,100.0,101.0,13.4,1505.2,330.4,-0.8,1.8,2471.256,13.29,0.019,81.0
2023-01-13T09:04:03,42.805,6.029,0.017,-0.022,-0.026,102.0,100.0,100.0,13.4,1505.2,318.8,-0.7,1.8,2471.311,13.28,0.027,142.3
2023-01-13T09:07:03,42.805,6.029,0.004,-0.02,-0.024,100.0,101.0,101.0,13.4,1505.2,336.2,-0.8,1.8,2471.328,13.28,0.02,168.7
2023-01-13T09:10:03,42.805,6.029,0.021,-0.034,-0.021,100.0,101.0,101.0,13.4,1505.2,333.8,-0.8,1.8,2471.328,13.28,0.039,148.3
2023-01-13T09:13:03,42.805,6.029,0.039,-0.02,-0.025,100.0,102.0,99.0,13.3,1505.2,323.6,-0.8,1.8,2471.325,13.28,0.043,117.1
2023-01-13T09:16:03,42.805,6.029,0.045,-0.025,-0.019,101.0,101.0,100.0,13.4,1505.2,317.8,-0.7,1.8,2471.301,13.28,0.051,119.1
2023-01-13T09:19:03,42.805,6.029,0.033,-0.039,-0.008,100.0,102.0,101.0,13.3,1505.2,336.3,-0.7,1.8,2471.326,13.28,0.051,139.8
2023-01-13T09:22:03,42.805,6.029,0.026,-0.019,-0.017,100.0,100.0,100.0,13.3,1505.2,321.5,-0.7,1.8,2471.304,13.29,0.032,126.2
2023-01-13T09:25:03,42.805,6.029,0.025,-0.037,-0.053,99.0,101.0,101.0,13.3,1505.2,329.0,-0.8,1.8,2471.306,13.29,0.044,146.0
2023-01-13T09:28:03,42.805,6.029,0.028,-0.014,-0.005,100.0,101.0,100.0,13.4,1505.2,321.4,-0.8,1.8,2471.311,13.29,0.031,116.6
2023-01-13T09:31:03,42.805,6.029,0.029,0.006,-0.009,100.0,101.0,101.0,13.3,1505.2,318.4,-0.8,1.8,2471.303,13.29,0.029,78.3
2023-01-13T09:34:03,42.805,6.029,0.043,0.0,0.017,101.0,99.0,101.0,13.4,1505.2,318.1,-0.8,1.9,2471.311,13.29,0.043,90.0
2023-01-13T09:37:03,42.805,6.029,0.005,-0.025,-0.022,102.0,100.0,100.0,13.4,1505.2,337.5,-0.7,1.8,2471.26,13.29,0.025,168.7
2023-01-13T09:40:03,42.805,6.029,0.039,-0.014,-0.016,100.0,101.0,100.0,13.4,1505.2,320.9,-0.8,1.8,2471.286,13.29,0.041,109.7
2023-01-13T09:43:03,42.805,6.029,0.0,0.0,-0.014,101.0,101.0,100.0,13.4,1505.2,326.5,-0.8,1.8,2471.323,13.29,0.0,0.0
2023-01-13T09:46:03,42.805,6.029,0.014,0.003,-0.02,100.0,101.0,100.0,13.4,1505.2,321.8,-0.7,1.8,2471.288,13.29,0.014,77.9
2023-01-13T09:49:03,42.805,6.029,0.039,-0.033,-0.045,100.0,101.0,100.0,13.4,1505.2,321.4,-0.8,1.8,2471.28,13.29,0.051,130.2
2023-01-13T09:52:03,42.805,6.029,0.015,-0.012,-0.041,99.0,99.0,101.0,13.4,1505.2,317.5,-0.8,1.8,2471.316,13.29,0.019,128.7
2023-01-13T09:55:03,42.805,6.029,0.034,-0.026,0.0,101.0,99.0,102.0,13.3,1505.2,325.4,-0.8,1.8,2471.281,13.29,0.042,127.4